Wind_Speed
10 10 10 9 10 11 11 12 12 12 11 12 13 15 16 18 19 20 21 22 23 23 24 23 22 23 24 25 26 27 28 29 30 31 31 32 32 32 33 33 33 33 33 34
8 8 8 9 9 10 10 11 11 12 12 13 13 14 15 17 18 19 21 21 22 24 24 22 22 23 24 26 28 29 31 32 32 33 33 33 33 34 34 34 35 35 35 35
8 7 8 8 8 10 10 11 12 12 13 13 13 14 16 17 17 18 19 19 20 21 22 22 22 24 25 26 28 29 31 32 33 34 34 34 34 35 35 35 35 35 35 35
7 7 7 7 8 9 10 11 11 11 11 12 12 13 13 14 14 15 15 17 18 19 20 20 22 24 25 27 28 29 30 31 32 33 34 34 35 35 36 36 36 36 36 36
6 6 7 8 8 9 10 10 10 11 11 10 10 11 11 12 13 14 14 15 16 17 17 19 21 22 24 25 27 29 30 31 32 33 34 34 34 35 36 36 36 36 36 36
7 6 7 7 9 10 10 10 9 10 11 10 10 11 11 12 12 12 14 15 16 16 17 19 20 21 23 25 26 27 29 30 31 32 32 33 33 34 34 35 36 36 37 37
6 6 6 7 8 8 8 9 9 9 9 9 9 10 10 10 11 12 14 15 16 16 17 18 19 21 23 24 25 26 27 28 30 31 31 32 33 34 35 36 36 37 37 37
6 6 6 6 7 7 7 8 9 8 8 7 8 8 9 9 11 13 14 15 16 17 18 19 21 22 23 24 26 27 28 28 29 30 31 32 33 34 35 36 36 37 37 38
6 7 6 6 6 7 7 6 7 6 6 6 7 8 9 10 12 14 15 16 18 19 20 21 23 24 25 26 27 27 28 29 30 31 32 33 34 34 35 36 36 37 37 38
5 5 5 6 6 6 6 6 6 6 7 7 7 8 10 12 13 15 17 18 20 21 22 24 25 26 27 28 28 29 29 30 31 32 32 33 33 35 35 35 36 36 37 38
5 6 5 6 6 6 5 6 6 6 7 8 8 9 11 13 15 17 18 21 22 23 24 25 27 28 29 29 30 30 31 31 32 32 33 33 34 35 35 35 35 35 36 36
7 7 6 6 5 5 6 6 6 7 7 8 9 10 12 15 16 18 20 22 24 25 26 27 28 29 30 31 32 32 32 32 33 33 34 34 35 35 35 35 36 36 36 37
8 8 6 6 5 5 6 6 6 7 8 9 11 12 14 16 18 20 22 23 25 26 27 29 30 31 31 32 33 33 33 33 33 34 34 35 36 36 36 36 36 36 36 36
8 7 7 7 7 7 7 7 8 9 10 11 12 14 15 17 19 21 23 24 26 27 29 30 31 32 33 33 34 34 34 34 34 34 35 36 36 36 37 36 36 35 35 34
9 8 7 7 8 8 7 8 9 10 11 12 13 14 16 18 20 22 24 25 27 29 30 31 32 33 34 34 35 35 35 34 34 35 36 37 37 37 37 36 35 35 34 33
9 9 8 8 8 7 8 9 10 11 12 13 14 15 17 19 21 23 25 26 28 30 31 33 33 34 34 35 35 35 35 34 35 36 37 37 37 37 36 35 34 33 32 31
9 9 9 9 9 9 9 10 11 11 12 13 15 16 17 19 22 23 26 28 29 31 32 33 34 35 35 35 36 35 35 35 35 37 37 38 37 36 35 34 33 32 31 30
10 11 11 11 11 10 10 11 12 12 13 14 15 16 18 20 22 24 26 28 30 32 32 33 34 35 35 36 36 36 36 35 36 37 38 38 37 36 35 34 33 32 30 29
10 11 11 11 11 10 11 12 13 13 14 15 16 17 18 20 23 24 26 28 30 32 33 34 34 36 36 36 36 36 36 36 36 37 38 37 36 36 35 34 33 31 30 28
10 11 11 11 11 11 11 12 13 13 13 15 16 17 19 21 23 24 26 29 30 32 33 34 35 36 36 36 36 37 37 36 36 37 37 37 36 36 35 34 32 31 30 29
10 10 10 11 11 11 12 13 13 14 14 15 16 18 20 22 23 25 27 28 31 32 33 34 35 36 36 36 37 37 37 36 36 37 37 36 36 36 35 34 32 31 30 28
10 10 10 11 12 13 13 14 14 15 15 16 17 19 20 22 23 25 26 28 30 31 32 34 35 36 36 36 37 36 37 37 36 36 36 36 36 35 34 33 32 31 30 28
11 11 11 12 13 13 14 14 15 16 17 17 18 19 20 21 23 24 26 28 30 31 32 34 35 36 36 36 36 36 37 37 37 36 36 35 35 35 34 33 32 31 30 28
13 13 13 13 13 14 15 15 16 17 18 18 19 19 20 22 23 24 26 28 29 30 32 33 35 35 36 36 36 36 37 37 36 36 35 35 34 34 34 33 32 31 29 28
14 14 14 14 14 15 15 16 17 17 18 19 19 20 21 22 23 24 26 27 29 30 32 33 35 35 36 36 36 37 37 37 36 36 35 34 33 33 32 32 32 31 30 29
16 17 17 16 16 16 16 17 17 18 19 19 20 20 21 22 23 25 26 28 29 30 32 33 34 35 35 36 36 36 37 37 36 36 35 34 33 32 32 31 31 31 30 29
Wind_Direction
315 310 301 290 278 272 274 275 270 269 275 276 276 282 287 293 294 292 292 293 296 297 296 291 290 291 292 294 295 295 295 296 296 296 296 294 293 291 290 287 285 283 282 280
311 305 295 287 279 276 278 278 279 279 285 282 281 287 294 300 297 294 297 298 298 297 295 294 293 294 294 295 297 297 297 297 297 297 298 296 294 292 290 288 286 284 282 280
311 302 290 284 282 282 283 282 284 287 291 293 289 294 300 304 303 300 300 299 300 300 296 295 294 294 296 296 296 296 297 297 298 299 299 298 296 294 292 290 288 285 283 280
314 299 288 286 288 282 284 288 286 289 296 303 300 304 308 310 311 311 309 308 306 304 300 298 296 297 297 298 298 299 299 299 300 300 299 298 297 295 293 291 289 286 284 281
312 297 289 288 289 288 292 295 294 295 300 307 311 312 318 318 318 317 318 318 316 312 307 303 303 303 303 302 302 302 301 301 301 301 300 299 297 295 293 292 290 288 286 283
306 293 287 290 292 295 298 301 304 305 304 307 312 313 317 320 323 321 321 322 322 319 314 311 310 310 309 308 306 305 304 303 303 302 301 300 298 296 294 292 291 288 286 283
311 303 297 295 296 295 302 312 315 310 311 311 314 319 322 323 324 324 324 325 326 325 323 321 321 320 318 315 313 311 309 308 307 306 304 303 301 298 296 294 291 289 286 283
314 312 312 312 306 303 311 318 319 317 317 321 325 329 334 335 333 332 332 333 333 333 333 333 332 329 326 322 319 316 313 312 310 309 307 305 303 301 299 297 293 290 286 283
304 310 319 315 308 307 316 322 326 327 327 328 336 341 342 341 341 339 339 340 340 340 340 339 337 333 330 327 324 320 318 316 315 312 310 308 306 304 303 300 296 293 289 286
305 315 319 313 305 302 310 320 327 337 340 337 340 342 344 343 342 342 343 345 346 346 345 342 340 337 334 332 329 326 323 321 319 317 315 313 311 310 308 305 301 298 294 290
302 315 323 317 309 302 305 319 330 337 338 337 339 343 344 344 343 344 347 349 349 348 346 344 343 340 338 336 333 331 329 327 325 323 321 318 316 314 312 309 305 302 298 296
294 303 314 315 308 299 304 312 319 326 333 336 340 345 343 344 346 347 349 350 349 348 346 345 343 342 340 339 337 335 333 330 329 327 325 322 321 318 316 313 310 306 303 299
291 298 299 297 296 292 298 306 311 320 327 334 340 343 343 345 347 349 349 349 349 348 347 346 344 343 342 341 340 338 336 334 332 330 329 327 324 322 319 317 314 310 307 303
291 293 292 292 290 286 293 302 309 321 329 334 338 341 343 345 346 348 348 348 349 349 348 347 345 344 343 342 341 340 338 336 334 333 332 330 328 326 323 320 318 315 312 308
285 286 286 286 289 286 291 299 306 316 323 329 335 338 341 343 345 346 347 348 349 348 348 347 346 345 344 344 343 342 340 339 337 336 335 333 332 329 327 325 322 319 316 313
282 287 288 288 289 286 291 299 303 309 318 325 331 336 339 341 344 345 346 348 348 348 348 347 346 346 345 344 344 343 342 341 340 339 338 336 335 333 331 329 326 324 320 317
281 284 288 292 293 293 294 298 301 307 315 322 327 333 336 340 342 344 345 347 348 348 347 347 346 346 345 345 345 344 343 342 342 341 341 340 339 337 335 333 331 329 325 322
278 283 287 293 297 295 297 296 301 306 312 319 324 329 333 338 341 343 344 346 347 348 347 347 347 347 347 346 346 345 344 343 343 343 343 343 342 341 338 336 334 333 330 326
278 282 287 293 297 297 294 296 301 307 313 316 322 328 333 336 339 341 343 345 347 347 347 347 348 348 347 347 347 346 346 345 345 345 345 345 344 343 342 340 338 337 335 331
280 283 284 290 298 299 296 299 304 309 313 316 321 326 331 334 336 339 342 344 346 346 347 348 348 348 348 347 347 348 348 347 347 347 347 347 346 345 345 344 342 340 338 336
277 280 282 288 294 299 301 305 308 312 317 318 321 326 329 332 335 337 340 343 344 346 347 348 348 348 348 348 348 348 349 349 349 349 348 348 348 348 347 347 346 345 343 342
274 280 283 288 293 297 300 306 310 314 317 320 323 326 328 331 333 336 338 341 343 345 346 347 348 348 349 349 349 349 350 350 350 350 350 350 350 351 350 350 349 349 348 348
271 278 286 292 296 297 301 308 312 316 319 321 323 325 328 330 333 335 338 341 343 344 345 346 347 348 349 349 350 350 350 350 350 350 351 351 352 353 353 353 353 353 353 353
270 276 283 288 291 294 299 307 310 313 315 318 322 324 327 329 332 334 337 340 342 343 344 345 346 347 348 349 349 350 350 350 351 351 351 352 353 354 355 356 356 356 356 356
272 275 278 282 287 290 295 301 305 308 310 314 318 322 325 328 330 333 336 339 341 342 343 344 346 347 347 348 349 350 350 350 350 351 351 352 353 354 356 357 358 358 359 359
271 274 276 280 284 288 292 297 301 305 307 310 315 319 322 324 328 332 335 337 339 340 341 343 345 347 348 349 349 349 349 350 350 351 351 352 353 354 355 357 358 359 0 1
Height
5866 5866 5864 5863 5863 5863 5863 5862 5862 5861 5861 5861 5861 5860 5859 5858 5857 5855 5854 5851 5850 5847 5845 5843 5842 5840 5839 5837 5835 5833 5831 5829 5827 5825 5823 5822 5820 5819 5817 5816 5815 5814 5813 5812
5866 5865 5863 5862 5862 5861 5861 5861 5860 5860 5859 5859 5858 5858 5857 5855 5853 5851 5849 5847 5845 5843 5841 5839 5838 5836 5834 5831 5829 5827 5825 5822 5820 5818 5816 5813 5812 5810 5809 5807 5806 5805 5804 5803
5865 5864 5862 5862 5861 5860 5860 5860 5859 5859 5858 5857 5856 5856 5854 5852 5850 5848 5845 5843 5841 5839 5837 5835 5833 5831 5829 5826 5824 5821 5819 5816 5813 5811 5808 5806 5803 5801 5800 5798 5797 5795 5794 5793
5864 5863 5862 5861 5860 5860 5859 5858 5858 5857 5856 5855 5855 5853 5852 5849 5847 5845 5843 5841 5838 5835 5833 5831 5829 5827 5824 5821 5819 5816 5813 5810 5807 5804 5801 5798 5795 5793 5791 5789 5787 5786 5784 5783
5863 5862 5862 5861 5860 5859 5859 5857 5856 5856 5855 5854 5853 5851 5850 5847 5845 5844 5841 5839 5836 5833 5831 5828 5826 5823 5819 5816 5813 5810 5807 5804 5800 5797 5794 5791 5788 5785 5782 5780 5778 5776 5774 5773
5863 5862 5861 5860 5859 5859 5858 5857 5855 5854 5854 5853 5851 5850 5849 5846 5844 5842 5840 5837 5835 5831 5828 5826 5822 5819 5815 5812 5808 5805 5801 5798 5794 5791 5787 5783 5780 5777 5774 5771 5768 5766 5764 5762
5862 5861 5860 5859 5858 5858 5857 5857 5855 5854 5852 5852 5850 5849 5848 5845 5843 5841 5839 5836 5832 5829 5826 5822 5819 5815 5811 5807 5803 5799 5796 5792 5788 5784 5780 5776 5772 5769 5765 5762 5759 5756 5754 5751
5861 5860 5859 5858 5857 5857 5856 5855 5855 5853 5852 5851 5849 5847 5847 5844 5842 5839 5837 5834 5830 5826 5822 5818 5814 5810 5806 5802 5798 5794 5790 5785 5781 5776 5772 5768 5764 5760 5756 5752 5749 5746 5743 5740
5860 5860 5859 5857 5857 5856 5855 5854 5853 5852 5851 5850 5848 5847 5845 5842 5840 5838 5835 5831 5827 5823 5818 5814 5810 5806 5801 5797 5792 5788 5783 5778 5773 5769 5764 5760 5755 5751 5746 5742 5738 5734 5731 5729
5859 5859 5858 5857 5856 5855 5855 5853 5852 5851 5850 5848 5847 5845 5844 5841 5839 5836 5832 5828 5824 5819 5815 5810 5806 5801 5796 5792 5787 5781 5776 5771 5766 5761 5756 5751 5746 5741 5736 5732 5727 5723 5719 5716
5858 5858 5858 5857 5855 5854 5854 5853 5851 5850 5849 5848 5846 5846 5842 5840 5837 5833 5829 5825 5820 5816 5811 5807 5802 5797 5792 5786 5781 5775 5770 5764 5759 5753 5748 5742 5737 5732 5726 5721 5717 5712 5708 5704
5857 5857 5856 5855 5854 5853 5852 5851 5851 5850 5848 5846 5845 5846 5840 5837 5834 5830 5826 5822 5817 5813 5808 5803 5798 5792 5787 5781 5775 5769 5763 5757 5752 5746 5740 5735 5729 5723 5717 5712 5706 5701 5696 5692
5856 5855 5855 5854 5855 5853 5851 5850 5849 5848 5847 5845 5843 5844 5838 5835 5831 5827 5823 5819 5814 5810 5804 5799 5793 5788 5782 5776 5770 5764 5757 5751 5745 5740 5734 5727 5721 5714 5708 5702 5696 5690 5685 5680
5854 5853 5854 5853 5852 5851 5850 5849 5847 5846 5844 5843 5841 5839 5836 5832 5829 5825 5821 5816 5811 5806 5801 5795 5790 5784 5778 5771 5765 5758 5752 5746 5739 5733 5727 5720 5713 5706 5700 5693 5686 5680 5675 5669
5852 5851 5851 5850 5850 5849 5848 5847 5845 5844 5843 5841 5839 5836 5833 5830 5826 5822 5818 5813 5808 5803 5797 5791 5786 5779 5773 5767 5760 5753 5747 5740 5734 5727 5720 5713 5706 5699 5691 5684 5678 5671 5665 5659
5850 5849 5849 5848 5847 5847 5846 5845 5843 5842 5840 5839 5836 5834 5831 5827 5823 5819 5815 5810 5805 5799 5794 5788 5782 5775 5769 5762 5756 5749 5742 5735 5729 5722 5715 5707 5699 5692 5684 5677 5670 5663 5657 5651
5847 5847 5847 5846 5845 5844 5844 5843 5841 5840 5838 5836 5834 5832 5828 5824 5820 5816 5812 5807 5802 5796 5790 5784 5778 5772 5765 5758 5751 5745 5738 5731 5724 5717 5709 5701 5693 5685 5678 5670 5663 5656 5649 5643
5845 5845 5844 5843 5843 5842 5843 5840 5838 5837 5835 5833 5831 5828 5825 5822 5818 5813 5809 5804 5798 5793 5787 5781 5775 5768 5761 5754 5747 5740 5733 5726 5719 5712 5704 5696 5688 5680 5672 5665 5657 5650 5643 5637
5843 5843 5842 5841 5840 5839 5839 5837 5835 5834 5832 5830 5828 5825 5822 5818 5815 5811 5806 5801 5795 5790 5784 5778 5771 5765 5758 5751 5744 5736 5729 5722 5715 5707 5699 5691 5683 5675 5667 5660 5652 5645 5638 5632
5840 5840 5840 5838 5837 5836 5837 5834 5832 5832 5830 5827 5824 5822 5819 5815 5812 5808 5803 5798 5792 5787 5781 5775 5768 5761 5754 5747 5740 5733 5725 5718 5711 5703 5695 5687 5679 5671 5663 5655 5648 5641 5634 5627
5838 5837 5837 5836 5834 5834 5833 5831 5830 5829 5827 5824 5821 5818 5815 5812 5809 5805 5799 5794 5789 5784 5778 5771 5765 5758 5751 5744 5737 5729 5722 5715 5707 5700 5692 5684 5676 5668 5660 5652 5644 5637 5630 5623
5834 5834 5833 5833 5832 5833 5829 5827 5826 5825 5822 5820 5817 5814 5812 5808 5805 5800 5796 5791 5786 5780 5775 5768 5762 5755 5748 5741 5734 5726 5719 5712 5704 5697 5689 5681 5673 5665 5657 5649 5642 5634 5627 5621
5831 5831 5830 5830 5830 5828 5826 5824 5822 5820 5818 5816 5813 5811 5808 5805 5801 5797 5792 5788 5783 5777 5771 5765 5759 5752 5745 5738 5731 5724 5717 5709 5702 5694 5687 5679 5671 5663 5655 5647 5640 5633 5626 5619
5827 5827 5827 5826 5825 5824 5822 5820 5819 5816 5814 5812 5810 5807 5804 5801 5797 5793 5789 5784 5779 5774 5768 5762 5756 5749 5742 5736 5729 5722 5714 5707 5699 5692 5684 5677 5669 5661 5654 5646 5639 5632 5625 5618
5823 5823 5822 5821 5821 5820 5819 5817 5815 5813 5811 5809 5806 5803 5800 5797 5794 5790 5785 5781 5776 5770 5765 5759 5753 5746 5740 5733 5726 5719 5712 5705 5697 5690 5682 5675 5668 5660 5653 5646 5639 5632 5625 5618
5818 5818 5817 5817 5816 5815 5814 5813 5811 5809 5807 5805 5802 5799 5796 5793 5789 5785 5781 5777 5772 5767 5762 5756 5750 5744 5737 5730 5724 5717 5710 5703 5696 5688 5681 5674 5666 5659 5652 5645 5638 5631 5625 5618